GJONW EGNH-EGLC

Flight info

Callsign GJONW
Flight time 1h 30m
Altitude 3000
Route ESTRY DCT WAL L10 HON
Aircraft BT36/L-BDFGLORY/S

Departure

Time 2026-04-30 18:19
Airport Blackpool Airport (EGNH)

Arrival

Time 2026-04-30 19:49
Airport London City Airport (EGLC)
Time Latitude Longitude Altitude Speed Heading
2026-04-30 18:11 53.77581 -3.04356 34 ft 0 kts 175°
2026-04-30 18:13 53.77580 -3.04357 34 ft 1 kts 184°
2026-04-30 18:13 53.77594 -3.04334 34 ft 5 kts 74°
2026-04-30 18:14 53.77571 -3.04230 34 ft 5 kts 207°
2026-04-30 18:15 53.77382 -3.04391 34 ft 7 kts 185°
2026-04-30 18:15 53.77316 -3.04384 34 ft 0 kts 163°
2026-04-30 18:17 53.77260 -3.04349 33 ft 13 kts 154°
2026-04-30 18:18 53.77221 -3.04199 32 ft 7 kts 94°
2026-04-30 18:18 53.77205 -3.03909 35 ft 52 kts 94°
2026-04-30 18:18 53.77199 -3.03062 119 ft 80 kts 84°
2026-04-30 18:18 53.77180 -3.02092 249 ft 86 kts 131°
2026-04-30 18:19 53.76635 -3.01595 423 ft 97 kts 166°
2026-04-30 18:19 53.75907 -3.01686 618 ft 116 kts 189°
2026-04-30 18:19 53.75107 -3.02129 784 ft 127 kts 196°
2026-04-30 18:19 53.74303 -3.02844 961 ft 133 kts 200°
2026-04-30 18:20 53.73477 -3.03596 1133 ft 137 kts 200°
2026-04-30 18:20 53.72628 -3.04331 1288 ft 138 kts 199°
2026-04-30 18:20 53.71781 -3.05083 1453 ft 137 kts 199°
2026-04-30 18:20 53.70949 -3.05848 1654 ft 138 kts 199°
2026-04-30 18:21 53.70085 -3.06636 1875 ft 145 kts 200°
2026-04-30 18:21 53.69174 -3.07445 2085 ft 150 kts 200°
2026-04-30 18:21 53.68237 -3.08274 2293 ft 152 kts 199°
2026-04-30 18:21 53.67315 -3.09121 2495 ft 153 kts 199°
2026-04-30 18:22 53.66386 -3.09993 2702 ft 153 kts 199°
2026-04-30 18:22 53.64533 -3.11770 3006 ft 157 kts 201°
2026-04-30 18:22 53.63550 -3.12645 3008 ft 162 kts 199°
2026-04-30 18:23 53.62530 -3.13525 3007 ft 166 kts 199°
2026-04-30 18:23 53.61492 -3.14428 3007 ft 169 kts 199°
2026-04-30 18:23 53.60442 -3.15352 3005 ft 171 kts 200°
2026-04-30 18:23 53.59388 -3.16275 3006 ft 171 kts 200°
2026-04-30 18:24 53.57274 -3.18080 3001 ft 171 kts 199°
2026-04-30 18:24 53.56162 -3.18553 2995 ft 162 kts 177°
2026-04-30 18:24 53.55041 -3.18543 2998 ft 161 kts 170°
2026-04-30 18:25 53.53939 -3.18312 2998 ft 156 kts 168°
2026-04-30 18:25 53.51869 -3.17862 2986 ft 145 kts 168°
2026-04-30 18:25 53.50870 -3.17637 2892 ft 148 kts 168°
2026-04-30 18:26 53.48762 -3.17123 2493 ft 156 kts 167°
2026-04-30 18:26 53.47681 -3.16880 2293 ft 157 kts 167°
2026-04-30 18:26 53.46593 -3.16643 2093 ft 158 kts 168°
2026-04-30 18:27 53.44481 -3.16197 1989 ft 147 kts 167°
2026-04-30 18:27 53.43474 -3.16004 1987 ft 144 kts 168°
2026-04-30 18:28 53.41532 -3.15567 1992 ft 139 kts 167°
2026-04-30 18:28 53.40586 -3.15347 1991 ft 138 kts 168°
2026-04-30 18:28 53.38690 -3.14894 1993 ft 138 kts 166°
2026-04-30 18:29 53.37727 -3.14705 1989 ft 139 kts 167°
2026-04-30 18:29 53.35237 -3.13306 1995 ft 125 kts 127°
2026-04-30 18:30 53.34261 -3.11544 1995 ft 128 kts 153°
2026-04-30 18:30 53.32196 -3.10728 2007 ft 133 kts 162°
2026-04-30 18:31 53.31295 -3.10381 2009 ft 132 kts 162°
2026-04-30 18:31 53.29523 -3.09635 2010 ft 133 kts 162°
2026-04-30 18:32 53.27714 -3.08849 2010 ft 135 kts 161°
2026-04-30 18:32 53.26803 -3.08475 2011 ft 135 kts 161°
2026-04-30 18:32 53.25769 -3.06239 2003 ft 134 kts 108°
2026-04-30 18:33 53.25537 -3.04740 2004 ft 133 kts 109°
2026-04-30 18:33 53.25082 -3.01708 2009 ft 136 kts 109°
2026-04-30 18:33 53.24856 -3.00166 2010 ft 137 kts 109°
2026-04-30 18:34 53.24631 -2.98624 2011 ft 137 kts 108°
2026-04-30 18:34 53.24320 -2.95556 2007 ft 137 kts 85°
2026-04-30 18:34 53.24248 -2.94034 2008 ft 131 kts 109°
2026-04-30 18:35 53.23996 -2.92581 2005 ft 130 kts 109°
2026-04-30 18:35 53.23748 -2.91137 2007 ft 129 kts 109°
2026-04-30 18:35 53.23490 -2.89642 1839 ft 140 kts 109°
2026-04-30 18:36 53.23007 -2.86291 1512 ft 152 kts 107°
2026-04-30 18:36 53.22780 -2.84593 1513 ft 147 kts 107°
2026-04-30 18:36 53.22323 -2.81319 1509 ft 143 kts 107°
2026-04-30 18:37 53.22093 -2.79732 1495 ft 139 kts 106°
2026-04-30 18:37 53.21867 -2.78171 1513 ft 137 kts 106°
2026-04-30 18:37 53.21658 -2.76619 1506 ft 137 kts 107°
2026-04-30 18:37 53.21468 -2.75064 1508 ft 136 kts 106°
2026-04-30 18:38 53.21288 -2.73532 1512 ft 136 kts 105°
2026-04-30 18:38 53.21102 -2.71989 1510 ft 135 kts 105°
2026-04-30 18:38 53.20906 -2.70451 1506 ft 136 kts 106°
2026-04-30 18:38 53.20716 -2.68910 1511 ft 135 kts 106°
2026-04-30 18:39 53.20535 -2.67355 1511 ft 138 kts 105°
2026-04-30 18:39 53.20332 -2.65775 1520 ft 141 kts 105°
2026-04-30 18:39 53.20118 -2.64169 1516 ft 142 kts 106°
2026-04-30 18:39 53.19904 -2.62548 1519 ft 144 kts 106°
2026-04-30 18:40 53.19695 -2.60915 1528 ft 144 kts 105°
2026-04-30 18:40 53.19554 -2.59832 1524 ft 144 kts 106°
2026-04-30 18:40 53.19346 -2.58215 1598 ft 138 kts 106°
2026-04-30 18:40 53.19169 -2.56697 1743 ft 130 kts 106°
2026-04-30 18:41 53.19013 -2.55250 1876 ft 124 kts 106°
2026-04-30 18:41 53.18862 -2.53857 2013 ft 121 kts 106°
2026-04-30 18:41 53.18703 -2.52448 2015 ft 126 kts 106°
2026-04-30 18:41 53.18540 -2.51000 2018 ft 128 kts 106°
2026-04-30 18:42 53.18384 -2.49542 2022 ft 128 kts 106°
2026-04-30 18:42 53.18071 -2.46571 2027 ft 131 kts 105°
2026-04-30 18:42 53.17885 -2.45087 2028 ft 131 kts 105°
2026-04-30 18:45 53.16051 -2.30093 2034 ft 131 kts 106°
2026-04-30 18:45 53.15878 -2.28609 2034 ft 131 kts 106°
2026-04-30 18:45 53.15701 -2.27115 2032 ft 131 kts 106°
2026-04-30 18:46 53.15517 -2.25619 2036 ft 132 kts 106°
2026-04-30 18:46 53.15330 -2.24118 2038 ft 133 kts 106°
2026-04-30 18:46 53.15146 -2.22631 2037 ft 133 kts 106°
2026-04-30 18:46 53.14958 -2.21129 2038 ft 133 kts 106°
2026-04-30 18:47 53.14769 -2.19624 2037 ft 133 kts 106°
2026-04-30 18:47 53.14580 -2.18114 2032 ft 132 kts 105°
2026-04-30 18:47 53.14390 -2.16637 2030 ft 130 kts 105°
2026-04-30 18:47 53.14194 -2.15182 2023 ft 127 kts 106°
2026-04-30 18:48 53.13998 -2.13757 2025 ft 126 kts 106°
2026-04-30 18:48 53.13810 -2.12324 2025 ft 127 kts 106°
2026-04-30 18:48 53.13614 -2.10860 2028 ft 132 kts 108°
2026-04-30 18:48 53.13383 -2.09370 2023 ft 133 kts 108°
2026-04-30 18:49 53.13150 -2.07899 2026 ft 133 kts 108°
2026-04-30 18:49 53.12908 -2.06413 2026 ft 133 kts 108°
2026-04-30 18:49 53.12673 -2.04934 2025 ft 132 kts 108°
2026-04-30 18:49 53.12446 -2.03451 2012 ft 131 kts 107°
2026-04-30 18:50 53.12214 -2.02006 2032 ft 130 kts 108°
2026-04-30 18:50 53.11960 -2.00527 2038 ft 135 kts 108°
2026-04-30 18:50 53.11712 -1.98999 2038 ft 138 kts 108°
2026-04-30 18:50 53.11480 -1.97436 2038 ft 140 kts 105°
2026-04-30 18:51 53.11252 -1.95857 2041 ft 141 kts 108°
2026-04-30 18:51 53.10999 -1.94277 2034 ft 141 kts 110°
2026-04-30 18:51 53.10706 -1.92723 2039 ft 141 kts 111°
2026-04-30 18:51 53.10404 -1.91201 2035 ft 139 kts 111°
2026-04-30 18:52 53.10091 -1.89685 2035 ft 139 kts 111°
2026-04-30 18:52 53.09781 -1.88179 2031 ft 136 kts 110°
2026-04-30 18:52 53.09476 -1.86697 2024 ft 134 kts 111°
2026-04-30 18:52 53.09176 -1.85240 2025 ft 134 kts 111°
2026-04-30 18:53 53.08878 -1.83821 2024 ft 128 kts 111°
2026-04-30 18:53 53.08591 -1.82423 2036 ft 128 kts 111°
2026-04-30 18:53 53.08300 -1.81009 2036 ft 129 kts 111°
2026-04-30 18:53 53.08009 -1.79603 2043 ft 127 kts 110°
2026-04-30 18:54 53.07717 -1.78194 2032 ft 127 kts 111°
2026-04-30 18:54 53.07440 -1.76853 2039 ft 120 kts 112°
2026-04-30 18:54 53.07165 -1.75537 2042 ft 124 kts 112°
2026-04-30 18:54 53.06876 -1.74149 2043 ft 129 kts 111°
2026-04-30 18:55 53.06580 -1.72723 2046 ft 131 kts 111°
2026-04-30 18:55 53.05980 -1.69819 2045 ft 133 kts 111°
2026-04-30 18:55 53.05680 -1.68375 2042 ft 131 kts 111°
2026-04-30 18:56 53.05086 -1.65506 2057 ft 134 kts 111°
2026-04-30 18:56 53.04781 -1.64035 2054 ft 134 kts 110°
2026-04-30 18:56 53.04483 -1.62596 2038 ft 128 kts 109°
2026-04-30 18:57 53.03925 -1.59847 2048 ft 125 kts 109°
2026-04-30 18:57 53.03647 -1.58475 2043 ft 128 kts 109°
2026-04-30 18:57 53.03361 -1.57071 2051 ft 127 kts 109°
2026-04-30 18:58 53.02801 -1.54331 2052 ft 126 kts 110°
2026-04-30 18:58 53.02520 -1.52942 2051 ft 127 kts 111°
2026-04-30 18:58 53.02235 -1.51542 2053 ft 128 kts 110°
2026-04-30 18:59 53.01497 -1.48891 2055 ft 130 kts 143°
2026-04-30 19:00 52.99007 -1.46950 2063 ft 129 kts 151°
2026-04-30 19:00 52.98175 -1.46349 2068 ft 132 kts 151°
2026-04-30 19:00 52.96477 -1.45105 2062 ft 134 kts 152°
2026-04-30 19:01 52.94805 -1.43756 2056 ft 132 kts 147°
2026-04-30 19:01 52.94103 -1.42786 2065 ft 131 kts 137°
2026-04-30 19:02 52.92742 -1.40739 2061 ft 132 kts 137°
2026-04-30 19:02 52.91387 -1.38695 2065 ft 132 kts 137°
2026-04-30 19:03 52.90016 -1.36636 2066 ft 133 kts 137°
2026-04-30 19:03 52.88639 -1.34577 2067 ft 133 kts 137°
2026-04-30 19:04 52.87259 -1.32527 2067 ft 135 kts 137°
2026-04-30 19:04 52.85837 -1.30475 2067 ft 136 kts 137°
2026-04-30 19:05 52.84378 -1.28432 2067 ft 138 kts 137°
2026-04-30 19:05 52.82796 -1.26671 2068 ft 141 kts 154°
2026-04-30 19:06 52.80866 -1.26007 2068 ft 140 kts 165°
2026-04-30 19:06 52.79905 -1.25755 2062 ft 140 kts 165°
2026-04-30 19:06 52.77969 -1.25290 2063 ft 140 kts 167°
2026-04-30 19:07 52.76050 -1.24827 2064 ft 140 kts 167°
2026-04-30 19:07 52.75088 -1.24595 2066 ft 139 kts 165°
2026-04-30 19:08 52.73205 -1.24156 1950 ft 135 kts 165°
2026-04-30 19:08 52.71288 -1.23690 1948 ft 144 kts 165°
2026-04-30 19:08 52.70294 -1.23433 1945 ft 148 kts 165°
2026-04-30 19:09 52.68231 -1.22894 1946 ft 151 kts 165°
2026-04-30 19:09 52.67190 -1.22621 1939 ft 152 kts 166°
2026-04-30 19:09 52.66139 -1.22345 1935 ft 154 kts 165°
2026-04-30 19:10 52.64017 -1.21781 1943 ft 155 kts 165°
2026-04-30 19:10 52.61881 -1.21210 1937 ft 155 kts 165°
2026-04-30 19:11 52.60819 -1.20930 1936 ft 154 kts 165°
2026-04-30 19:11 52.58732 -1.20381 1939 ft 152 kts 164°
2026-04-30 19:11 52.57688 -1.20107 1942 ft 152 kts 164°
2026-04-30 19:12 52.56646 -1.19831 1947 ft 152 kts 164°
2026-04-30 19:12 52.55591 -1.19550 1952 ft 155 kts 165°
2026-04-30 19:12 52.54519 -1.19260 1956 ft 157 kts 165°
2026-04-30 19:13 52.52353 -1.18674 1962 ft 157 kts 165°
2026-04-30 19:13 52.50213 -1.18099 1972 ft 154 kts 165°
2026-04-30 19:13 52.49155 -1.17813 1976 ft 154 kts 165°
2026-04-30 19:14 52.48100 -1.17528 1981 ft 154 kts 165°
2026-04-30 19:14 52.47040 -1.17241 1986 ft 154 kts 165°
2026-04-30 19:14 52.45980 -1.16953 1989 ft 154 kts 165°
2026-04-30 19:14 52.44920 -1.16667 1991 ft 154 kts 165°
2026-04-30 19:15 52.43876 -1.16446 1995 ft 154 kts 172°
2026-04-30 19:15 52.41788 -1.16155 2065 ft 147 kts 152°
2026-04-30 19:15 52.40853 -1.15476 2067 ft 147 kts 152°
2026-04-30 19:16 52.39922 -1.14791 2067 ft 146 kts 152°
2026-04-30 19:16 52.38993 -1.14108 2068 ft 146 kts 152°
2026-04-30 19:16 52.37121 -1.12727 2074 ft 150 kts 151°
2026-04-30 19:17 52.36162 -1.12024 2074 ft 151 kts 151°
2026-04-30 19:17 52.34259 -1.10631 2074 ft 149 kts 151°
2026-04-30 19:17 52.33311 -1.09937 2073 ft 150 kts 152°
2026-04-30 19:18 52.31729 -1.08769 2072 ft 151 kts 152°
2026-04-30 19:18 52.30460 -1.07834 2073 ft 151 kts 152°
2026-04-30 19:18 52.29498 -1.07128 2072 ft 151 kts 152°
2026-04-30 19:19 52.28537 -1.06422 2073 ft 151 kts 152°
2026-04-30 19:19 52.27580 -1.05721 2078 ft 149 kts 152°
2026-04-30 19:19 52.25696 -1.04344 2074 ft 148 kts 152°
2026-04-30 19:20 52.24755 -1.03655 2076 ft 149 kts 152°
2026-04-30 19:20 52.23824 -1.02973 2073 ft 149 kts 152°
2026-04-30 19:20 52.21983 -1.01416 2070 ft 148 kts 144°
2026-04-30 19:21 52.21126 -1.00488 2072 ft 147 kts 144°
2026-04-30 19:21 52.19419 -0.98633 2075 ft 148 kts 144°
2026-04-30 19:22 52.17704 -0.96788 2060 ft 147 kts 144°
2026-04-30 19:22 52.15134 -0.94072 2055 ft 148 kts 144°
2026-04-30 19:23 52.12540 -0.91353 2044 ft 148 kts 144°
2026-04-30 19:24 52.10820 -0.89564 2050 ft 147 kts 147°
2026-04-30 19:24 52.09906 -0.88814 2047 ft 147 kts 150°
2026-04-30 19:24 52.08072 -0.87376 2051 ft 145 kts 151°
2026-04-30 19:25 52.05369 -0.85251 2047 ft 144 kts 150°
2026-04-30 19:26 52.03563 -0.83831 2054 ft 144 kts 150°
2026-04-30 19:26 52.01762 -0.82413 2046 ft 143 kts 150°
2026-04-30 19:26 52.00865 -0.81708 2046 ft 143 kts 150°
2026-04-30 19:27 51.99073 -0.80298 2046 ft 145 kts 150°
2026-04-30 19:27 51.97242 -0.78852 2047 ft 147 kts 150°
2026-04-30 19:28 51.96322 -0.78128 2048 ft 147 kts 149°
2026-04-30 19:28 51.94793 -0.76919 2053 ft 147 kts 150°
2026-04-30 19:29 51.92950 -0.75466 2053 ft 147 kts 150°
2026-04-30 19:29 51.92035 -0.74745 2054 ft 146 kts 150°
2026-04-30 19:30 51.89286 -0.72578 2047 ft 147 kts 149°
2026-04-30 19:30 51.87452 -0.71134 2053 ft 145 kts 150°
2026-04-30 19:31 51.85645 -0.69710 2056 ft 144 kts 150°
2026-04-30 19:31 51.84744 -0.69002 2055 ft 144 kts 150°
2026-04-30 19:31 51.82948 -0.67591 2052 ft 144 kts 150°
2026-04-30 19:32 51.82051 -0.66886 2053 ft 143 kts 150°
2026-04-30 19:32 51.81183 -0.66120 2051 ft 141 kts 144°
2026-04-30 19:32 51.80379 -0.65211 2053 ft 142 kts 142°
2026-04-30 19:32 51.79556 -0.64290 2049 ft 146 kts 142°
2026-04-30 19:33 51.78729 -0.63371 2049 ft 147 kts 143°
2026-04-30 19:33 51.77881 -0.62423 2053 ft 149 kts 142°
2026-04-30 19:33 51.77024 -0.61466 2052 ft 150 kts 142°
2026-04-30 19:33 51.76170 -0.60513 2050 ft 150 kts 142°
2026-04-30 19:34 51.75311 -0.59554 2051 ft 150 kts 143°
2026-04-30 19:34 51.74451 -0.58595 2055 ft 151 kts 143°
2026-04-30 19:34 51.72924 -0.56323 2092 ft 150 kts 123°
2026-04-30 19:35 51.72360 -0.54908 2095 ft 150 kts 123°
2026-04-30 19:35 51.71799 -0.53492 2097 ft 149 kts 123°
2026-04-30 19:35 51.71242 -0.52082 2099 ft 149 kts 123°
2026-04-30 19:35 51.70684 -0.50668 2104 ft 150 kts 123°
2026-04-30 19:36 51.70125 -0.49247 2101 ft 150 kts 123°
2026-04-30 19:36 51.69578 -0.47818 2106 ft 149 kts 123°
2026-04-30 19:36 51.68503 -0.44969 2105 ft 147 kts 123°
2026-04-30 19:37 51.67979 -0.43583 2110 ft 147 kts 123°
2026-04-30 19:37 51.67448 -0.42183 2107 ft 146 kts 123°
2026-04-30 19:37 51.66917 -0.40786 2110 ft 146 kts 122°
2026-04-30 19:37 51.66383 -0.39399 2111 ft 146 kts 122°
2026-04-30 19:38 51.65837 -0.38021 2109 ft 146 kts 123°
2026-04-30 19:38 51.65213 -0.36740 2111 ft 145 kts 130°
2026-04-30 19:38 51.64551 -0.35513 2112 ft 145 kts 130°
2026-04-30 19:38 51.63845 -0.34345 2111 ft 146 kts 134°
2026-04-30 19:39 51.63100 -0.33226 2068 ft 149 kts 135°
2026-04-30 19:39 51.62324 -0.32061 1944 ft 155 kts 134°
2026-04-30 19:39 51.61530 -0.30872 1739 ft 154 kts 135°
2026-04-30 19:39 51.60754 -0.29736 1605 ft 147 kts 135°
2026-04-30 19:40 51.60003 -0.28664 1533 ft 139 kts 135°
2026-04-30 19:40 51.59294 -0.27663 1524 ft 132 kts 135°
2026-04-30 19:40 51.58617 -0.26718 1524 ft 126 kts 135°
2026-04-30 19:40 51.57969 -0.25817 1525 ft 121 kts 135°
2026-04-30 19:41 51.57362 -0.24988 1526 ft 109 kts 135°
2026-04-30 19:41 51.56811 -0.24238 1523 ft 102 kts 134°
2026-04-30 19:41 51.56279 -0.23523 1524 ft 94 kts 134°
2026-04-30 19:41 51.55783 -0.22866 1525 ft 91 kts 135°
2026-04-30 19:42 51.55301 -0.22223 1526 ft 89 kts 135°
2026-04-30 19:42 51.54831 -0.21605 1526 ft 86 kts 135°
2026-04-30 19:42 51.54376 -0.21011 1525 ft 85 kts 135°
2026-04-30 19:42 51.53915 -0.20405 1525 ft 86 kts 135°
2026-04-30 19:43 51.53449 -0.19788 1527 ft 88 kts 135°
2026-04-30 19:43 51.52975 -0.19162 1531 ft 89 kts 134°
2026-04-30 19:43 51.52587 -0.18410 1534 ft 88 kts 123°
2026-04-30 19:44 51.51807 -0.16713 1348 ft 103 kts 123°
2026-04-30 19:44 51.51525 -0.15626 1243 ft 109 kts 104°
2026-04-30 19:44 51.51373 -0.14459 1243 ft 105 kts 104°
2026-04-30 19:44 51.51250 -0.13316 1238 ft 103 kts 99°
2026-04-30 19:45 51.51135 -0.12210 1229 ft 98 kts 102°
2026-04-30 19:45 51.51048 -0.11148 1226 ft 95 kts 97°
2026-04-30 19:45 51.51015 -0.10106 1226 ft 91 kts 97°
2026-04-30 19:45 51.50973 -0.09124 1228 ft 88 kts 99°
2026-04-30 19:46 51.50917 -0.08164 1228 ft 86 kts 97°
2026-04-30 19:46 51.50911 -0.07213 1200 ft 86 kts 94°
2026-04-30 19:46 51.50928 -0.06223 1211 ft 91 kts 94°
2026-04-30 19:46 51.50910 -0.05199 1215 ft 93 kts 95°
2026-04-30 19:47 51.50875 -0.04126 1134 ft 100 kts 95°
2026-04-30 19:47 51.50837 -0.03377 1085 ft 103 kts 98°
2026-04-30 19:47 51.50754 -0.01819 1049 ft 103 kts 99°
2026-04-30 19:47 51.50698 -0.00613 970 ft 111 kts 94°
2026-04-30 19:48 51.50694 0.00656 776 ft 112 kts 92°
2026-04-30 19:48 51.50624 0.01895 523 ft 111 kts 91°
2026-04-30 19:48 51.50609 0.03006 327 ft 86 kts 94°
2026-04-30 19:48 51.50578 0.03876 175 ft 73 kts 90°
2026-04-30 19:49 51.50552 0.04630 42 ft 63 kts 93°
2026-04-30 19:49 51.50490 0.05332 20 ft 10 kts 232°
2026-04-30 19:49 51.50444 0.05167 20 ft 22 kts 271°
2026-04-30 19:50 51.50456 0.04903 20 ft 22 kts 263°
2026-04-30 19:50 51.50451 0.04668 20 ft 11 kts 249°
2026-04-30 19:50 51.50434 0.04649 20 ft 0 kts 206°